VU3OPX-13 Weather Reports


Display with metric or nautical units.
time (UTC)temp
F
wind
direction
speed
MPH
gust
MPH
rain 1hr
in
rain 24hr
in
rain mn
in
humidity
%
barometer
mb
20260508220237 79 349 3.0 0.0 0.00 0.00 8.26 63 1008.0
20260508213250 79 349 3.0 0.0 0.00 0.00 8.26 63 1008.0
20260508210302 80 278 3.0 0.0 0.00 0.00 8.26 63 1007.0
20260508203315 80 278 3.0 0.0 0.00 0.00 8.26 63 1007.0
20260508200328 80 220 4.0 0.0 0.00 0.00 8.26 63 1008.0
20260508193340 80 220 4.0 0.0 0.00 0.00 8.26 63 1008.0
20260508184210 81 225 3.0 0.0 0.00 0.00 8.26 61 1009.0
20260508181223 84 149 1.0 0.0 0.00 0.00 8.26 55 1009.0
20260508174236 84 149 1.0 0.0 0.00 0.00 8.26 55 1009.0
20260508171248 84 255 1.0 0.0 0.00 0.00 8.26 56 1010.0
20260508164301 84 255 1.0 0.0 0.00 0.00 8.26 56 1010.0
20260508161313 83 289 4.0 0.0 0.00 0.00 8.26 56 1009.0
20260508154326 83 289 4.0 0.0 0.00 0.00 8.26 56 1009.0
20260508151338 84 261 5.0 0.0 0.00 0.00 8.26 55 1009.0
20260508144351 84 261 5.0 0.0 0.00 0.00 8.26 55 1009.0
20260508141403 86 255 7.0 0.0 0.01 0.00 8.26 50 1008.0
20260508134415 86 255 7.0 0.0 0.00 0.00 8.26 50 1008.0
20260508131427 90 259 10.0 0.0 0.00 0.00 8.26 42 1006.0
20260508124440 91 259 10.0 0.0 0.00 0.00 8.26 37 1007.0
20260508115629 92 248 7.0 0.0 0.00 0.00 8.26 35 1006.0
20260508112641 94 238 4.0 0.0 0.00 0.00 8.26 32 1005.0
20260508105654 94 238 4.0 0.0 0.00 0.00 8.26 32 1005.0
20260508102707 96 94 4.0 0.0 0.00 0.00 8.26 25 1005.0
20260508095719 96 94 4.0 0.0 0.00 0.00 8.26 25 1005.0
20260508092731 98 78 9.0 0.0 0.00 0.00 8.26 22 1005.0
20260508085744 98 78 9.0 0.0 0.00 0.00 8.26 22 1005.0
20260508082756 101 79 10.0 0.0 0.00 0.00 8.26 20 1006.0
20260508075809 101 79 10.0 0.0 0.00 0.00 8.26 20 1006.0
20260508072822 99 82 9.0 0.0 0.00 0.00 8.26 23 1007.0
20260508065834 99 82 9.0 0.0 0.00 0.00 8.26 23 1007.0
20260508053831 97 76 9.0 0.0 0.00 0.00 8.26 24 1008.0
20260508050843 95 55 10.0 0.0 0.00 0.00 8.26 26 1009.0
20260508043856 95 55 10.0 0.0 0.00 0.00 8.26 26 1009.0
20260508040909 93 42 9.0 0.0 0.00 0.00 8.26 28 1010.0
20260508033921 93 42 9.0 0.0 0.00 0.00 8.26 28 1010.0
20260508030934 86 36 2.0 0.0 0.00 0.00 8.26 41 1010.0
20260508023418 86 36 2.0 0.0 0.00 0.00 8.26 41 1010.0
20260508020431 81 305 0.0 0.0 0.00 0.00 8.26 53 1010.0
20260508013443 81 305 0.0 0.0 0.00 0.00 8.26 53 1010.0
20260508010456 77 324 2.0 0.0 0.00 0.00 8.26 75 1009.0
20260508003509 77 324 2.0 0.0 0.00 0.00 8.26 75 1009.0
20260508000521 76 303 4.0 0.0 0.00 0.00 8.26 77 1008.0
20260507233534 76 245 2.0 0.0 0.00 0.00 8.26 77 1008.0
20260507230547 77 278 4.0 0.0 0.00 0.00 8.26 75 1008.0
20260507223600 77 278 4.0 0.0 0.00 0.00 8.26 75 1008.0
20260507220612 78 285 5.0 0.0 0.00 0.00 8.26 71 1007.0